"startDT [UTC]","vpos","CH4 [ppm]","stdev(CH4) [ppm]","CO2 [ppm]","stdev(CO2) [ppm]","H2O [ppm]","stdev(H2O)","p_LGR [torr]","T_LGR [C]","mt1_LGR [us]","mt2_LGR [us]","T_ECpre [C]","T_EC1 [C]","T_EC2 [C]","p_inlet [hPa]","p_in [hPa]","p_out [hPa]","T_inlet [C]","RH_inlet [%]","dwpt_inlet [C]","T_vent [C]","RH_vent [%]","dwpt_vent [C]","flow_vent [l min-1]","flow_inlet [l min-1]","dwpt_sample [C]","T_room [C]"
2013-03-18 00:00:00,0.0,1.9052,0.0008,403.63,0.44,133.3,31.8,138.08,30.43,24.66,36.43,0.04,-272.75,-272.75,-46,564,-929,24.7,2.5,-25.6,24.7,2.5,-25.4,5.73,2.38,-25.2,29.5
2013-03-18 00:01:00,0.0,1.9059,0.0008,403.45,0.46,135.4,31.8,138.08,30.43,24.66,36.44,0.04,-272.75,-272.75,-46,564,-930,24.7,2.4,-25.8,24.7,2.5,-25.4,5.73,2.38,-25.2,29.4
2013-03-18 00:02:00,0.0,1.9059,0.0010,403.62,0.44,131.7,29.8,138.08,30.43,24.66,36.43,0.04,-272.76,-272.76,-46,564,-929,24.7,2.4,-25.7,24.7,2.5,-25.5,5.73,2.38,-25.2,29.4
2013-03-18 00:03:00,0.0,1.9058,0.0009,403.63,0.39,131.9,33.4,138.08,30.43,24.66,36.43,0.04,-272.75,-272.76,-46,564,-930,24.7,2.5,-25.5,24.7,2.5,-25.3,5.73,2.37,-25.2,29.4
2013-03-18 00:04:00,0.0,1.9061,0.0010,403.59,0.44,137.1,35.4,138.08,30.43,24.66,36.43,0.04,-272.75,-272.75,-46,564,-929,24.7,2.4,-25.7,24.7,2.5,-25.3,5.73,2.37,-25.2,29.5
2013-03-18 00:05:00,0.0,1.9061,0.0008,403.64,0.45,135.2,33.1,138.08,30.43,24.66,36.43,0.04,-272.75,-272.75,-46,565,-929,24.7,2.5,-25.5,24.7,2.5,-25.2,5.73,2.35,-25.2,29.5
2013-03-18 00:06:00,0.0,1.9064,0.0010,403.57,0.37,129.2,29.0,138.08,30.43,24.66,36.43,0.04,-272.75,-272.76,-46,564,-930,24.7,2.5,-25.6,24.7,2.5,-25.3,5.73,2.35,-25.2,29.5
2013-03-18 00:07:00,0.0,1.9059,0.0011,403.58,0.36,137.8,31.1,138.08,30.43,24.66,36.43,0.04,-272.76,-272.76,-46,565,-929,24.7,2.4,-25.8,24.8,2.5,-25.4,5.73,2.34,-25.2,29.5
2013-03-18 00:08:00,0.0,1.9059,0.0008,403.47,0.39,142.0,33.2,138.08,30.43,24.66,36.44,0.04,-272.75,-272.75,-46,565,-930,24.7,2.4,-25.7,24.7,2.5,-25.5,5.73,2.34,-25.2,29.5
2013-03-18 00:09:00,0.0,1.9059,0.0011,403.53,0.43,135.7,32.6,138.08,30.44,24.66,36.43,0.04,-272.75,-272.76,-46,565,-930,24.7,2.4,-26.0,24.9,2.4,-25.6,5.73,2.34,-25.2,29.5
2013-03-18 00:10:00,0.0,1.9060,0.0012,403.61,0.39,146.0,37.8,138.08,30.44,24.66,36.44,0.04,-272.75,-272.75,-46,565,-929,24.7,2.4,-25.9,24.8,2.4,-25.8,5.73,2.33,-25.2,29.5
2013-03-18 00:11:00,0.0,1.9058,0.0011,403.67,0.42,132.0,32.7,138.08,30.44,24.66,36.43,0.04,-272.75,-272.75,-46,565,-930,24.7,2.3,-26.2,24.8,2.4,-25.7,5.73,2.35,-25.2,29.5
2013-03-18 00:12:00,0.0,1.9058,0.0009,403.68,0.34,140.1,32.6,138.08,30.44,24.66,36.43,0.04,-272.76,-272.76,-46,565,-929,24.7,2.3,-26.1,24.8,2.4,-25.7,5.73,2.35,-25.2,29.6
2013-03-18 00:13:00,0.0,1.9054,0.0008,403.69,0.46,134.9,28.4,138.08,30.44,24.66,36.43,0.04,-272.75,-272.76,-46,565,-930,24.7,2.3,-26.2,24.8,2.4,-25.8,5.73,2.37,-25.2,29.5
2013-03-18 00:14:00,0.0,1.9049,0.0011,403.67,0.40,134.3,28.8,138.08,30.44,24.66,36.43,0.04,-272.75,-272.75,-46,565,-930,24.7,2.3,-26.3,24.8,2.4,-25.9,5.73,2.38,-25.2,29.5
2013-03-18 00:15:00,0.0,1.9051,0.0009,403.53,0.51,146.8,35.1,138.08,30.44,24.66,36.43,0.04,-272.75,-272.76,-46,565,-929,24.7,2.3,-26.2,24.8,2.4,-25.9,5.73,2.38,-25.2,29.6
2013-03-18 00:16:00,0.0,1.9054,0.0009,403.63,0.38,142.3,35.8,138.08,30.44,24.66,36.43,0.04,-272.76,-272.76,-46,565,-930,24.8,2.3,-26.3,24.8,2.3,-26.1,5.73,2.38,-25.2,29.5
2013-03-18 00:17:00,0.0,1.9060,0.0010,403.74,0.44,148.6,32.5,138.08,30.44,24.66,36.43,0.04,-272.76,-272.75,-46,565,-929,24.8,2.3,-26.4,24.8,2.3,-26.1,5.73,2.36,-25.2,29.5
2013-03-18 00:18:00,0.0,1.9061,0.0009,403.48,0.43,147.0,35.1,138.08,30.44,24.66,36.43,0.04,-272.75,-272.75,-46,565,-930,24.8,2.3,-26.3,24.8,2.3,-26.1,5.73,2.35,-25.1,29.5
2013-03-18 00:19:00,0.0,1.9064,0.0010,403.44,0.36,139.8,33.5,138.08,30.44,24.66,36.44,0.04,-272.75,-272.76,-46,565,-930,24.8,2.2,-26.7,24.8,2.3,-26.1,5.73,2.35,-25.1,29.5
2013-03-18 00:20:00,0.0,1.9062,0.0009,403.62,0.42,148.7,30.8,138.08,30.44,24.66,36.44,0.04,-272.75,-272.75,-46,565,-930,24.8,2.2,-26.6,24.8,2.3,-26.1,5.73,2.34,-25.1,29.5
2013-03-18 00:21:00,0.0,1.9062,0.0009,403.58,0.41,147.2,28.1,138.08,30.44,24.66,36.43,0.04,-272.75,-272.75,-46,565,-930,24.8,2.2,-26.6,24.9,2.3,-26.2,5.73,2.34,-25.1,29.5
2013-03-18 00:22:00,0.0,1.9059,0.0009,403.52,0.43,142.5,32.1,138.08,30.44,24.66,36.43,0.04,-272.75,-272.75,-46,565,-929,24.8,2.2,-26.6,24.9,2.3,-26.4,5.73,2.33,-25.1,29.5
2013-03-18 00:23:00,0.0,1.9057,0.0009,403.64,0.43,140.9,30.9,138.08,30.44,24.66,36.43,0.04,-272.75,-272.76,-46,565,-930,24.8,2.2,-26.7,24.9,2.3,-26.3,5.73,2.34,-25.1,29.5
2013-03-18 00:24:00,0.0,1.9064,0.0011,403.69,0.45,137.4,34.5,138.08,30.44,24.66,36.43,0.04,-272.76,-272.75,-46,565,-930,24.8,2.2,-26.7,24.9,2.3,-26.3,5.73,2.35,-25.1,29.5
2013-03-18 00:25:00,0.0,1.9067,0.0009,403.61,0.45,145.0,32.6,138.08,30.44,24.66,36.43,0.04,-272.75,-272.75,-46,565,-930,24.8,2.2,-26.8,24.9,2.2,-26.4,5.73,2.36,-25.1,29.5
2013-03-18 00:26:00,0.0,1.9069,0.0008,403.54,0.34,141.5,29.6,138.08,30.44,24.66,36.44,0.04,-272.75,-272.76,-46,565,-930,24.8,2.2,-26.8,24.8,2.2,-26.6,5.73,2.37,-25.1,29.6
2013-03-18 00:27:00,0.0,1.9070,0.0009,403.72,0.45,147.1,33.1,138.08,30.44,24.66,36.43,0.04,-272.76,-272.75,-46,565,-929,24.8,2.2,-26.9,24.9,2.2,-26.6,5.73,2.38,-25.1,29.6
2013-03-18 00:28:00,0.0,1.9071,0.0011,403.61,0.40,134.7,31.7,138.08,30.45,24.66,36.43,0.04,-272.75,-272.75,-47,565,-930,24.9,2.1,-26.9,24.9,2.2,-26.7,5.73,2.38,-25.1,29.6
2013-03-18 00:29:00,0.0,1.9075,0.0011,403.63,0.40,127.8,30.6,138.07,30.45,24.66,36.43,0.04,-272.75,-272.75,-46,565,-930,24.8,2.1,-27.0,24.9,2.2,-26.5,5.73,2.37,-25.1,29.5
2013-03-18 00:30:00,0.0,1.9075,0.0008,403.70,0.39,148.1,25.8,138.08,30.45,24.66,36.43,0.04,-272.76,-272.76,-46,565,-930,24.9,2.1,-27.1,24.9,2.2,-26.7,5.73,2.37,-25.1,29.6
2013-03-18 00:31:00,0.0,1.9081,0.0010,403.78,0.46,139.4,30.8,138.08,30.45,24.66,36.43,0.04,-272.75,-272.75,-46,565,-930,24.9,2.1,-27.2,24.9,2.2,-26.7,5.73,2.36,-25.1,29.6
2013-03-18 00:32:00,0.0,1.9088,0.0009,403.66,0.38,139.3,34.7,138.08,30.45,24.66,36.43,0.04,-272.76,-272.75,-47,565,-930,24.9,2.1,-27.1,24.9,2.2,-26.7,5.73,2.35,-25.1,29.6
2013-03-18 00:33:00,0.0,1.9078,0.0011,403.66,0.41,151.4,31.4,138.08,30.45,24.66,36.43,0.04,-272.76,-272.76,-46,565,-930,24.9,2.1,-27.1,24.9,2.2,-26.8,5.73,2.34,-25.1,29.6
2013-03-18 00:34:00,0.0,1.9079,0.0009,403.64,0.42,151.2,30.0,138.08,30.45,24.66,36.44,0.04,-272.75,-272.76,-47,565,-930,24.9,2.1,-27.2,24.9,2.1,-26.9,5.73,2.34,-25.1,29.6
2013-03-18 00:35:00,0.0,1.9085,0.0010,403.68,0.44,148.1,28.4,138.07,30.45,24.66,36.43,0.04,-272.76,-272.75,-47,565,-930,24.9,2.0,-27.4,24.9,2.1,-26.9,5.73,2.34,-25.1,29.5
2013-03-18 00:36:00,0.0,1.9091,0.0008,403.65,0.47,145.8,33.7,138.07,30.45,24.66,36.43,0.04,-272.76,-272.76,-47,565,-930,24.9,2.1,-27.4,24.9,2.1,-27.0,5.73,2.34,-25.1,29.6
2013-03-18 00:37:00,0.0,1.9094,0.0010,403.70,0.42,139.7,34.7,138.08,30.45,24.66,36.43,0.04,-272.75,-272.75,-47,565,-930,24.9,2.1,-27.3,24.9,2.1,-27.0,5.73,2.35,-25.1,29.6
2013-03-18 00:38:00,0.0,1.9089,0.0008,403.65,0.42,138.5,33.0,138.07,30.45,24.66,36.44,0.04,-272.75,-272.75,-47,565,-930,24.9,2.1,-27.3,25.0,2.1,-26.9,5.73,2.35,-25.1,29.6
2013-03-18 00:39:00,0.0,1.9099,0.0009,403.71,0.44,145.7,35.3,138.07,30.45,24.66,36.43,0.04,-272.75,-272.76,-47,565,-930,24.9,2.0,-27.5,24.9,2.1,-27.0,5.73,2.35,-25.1,29.6
2013-03-18 00:40:00,0.0,1.9100,0.0008,403.68,0.39,145.9,34.7,138.08,30.45,24.66,36.43,0.04,-272.75,-272.75,-47,565,-930,24.9,2.0,-27.4,25.0,2.1,-27.2,5.73,2.36,-25.1,29.5
2013-03-18 00:41:00,0.0,1.9100,0.0009,403.75,0.38,136.2,33.5,138.07,30.46,24.66,36.44,0.04,-272.75,-272.75,-47,565,-930,24.9,2.0,-27.6,25.0,2.1,-27.1,5.73,2.35,-25.2,29.6
2013-03-18 00:42:00,0.0,1.9098,0.0008,403.74,0.42,141.3,30.6,138.08,30.46,24.66,36.43,0.04,-272.75,-272.76,-47,566,-930,24.9,2.0,-27.5,25.0,2.1,-27.2,5.73,2.36,-25.2,29.6
2013-03-18 00:43:00,0.0,1.9102,0.0009,403.65,0.39,139.0,31.9,138.07,30.46,24.66,36.43,0.04,-272.76,-272.76,-47,566,-930,24.9,2.0,-27.7,25.0,2.1,-27.3,5.73,2.36,-25.2,29.6
2013-03-18 00:44:00,0.0,1.9106,0.0010,403.66,0.42,139.8,31.6,138.07,30.46,24.66,36.44,0.04,-272.76,-272.76,-47,566,-930,25.0,2.0,-27.5,25.0,2.0,-27.4,5.73,2.37,-25.2,29.6
2013-03-18 00:45:00,0.0,1.9105,0.0011,403.65,0.46,140.9,33.7,138.07,30.46,24.66,36.44,0.04,-272.75,-272.76,-47,565,-930,25.0,2.0,-27.7,25.0,2.0,-27.4,5.73,2.37,-25.2,29.6
2013-03-18 00:46:00,0.0,1.9109,0.0009,403.69,0.45,139.1,31.5,138.07,30.46,24.66,36.43,0.04,-272.75,-272.75,-47,566,-930,25.0,2.0,-27.8,25.0,2.0,-27.3,5.73,2.37,-25.2,29.6
2013-03-18 00:47:00,0.0,1.9105,0.0008,403.79,0.48,139.7,34.0,138.07,30.46,24.66,36.43,0.04,-272.75,-272.76,-47,566,-930,25.0,2.0,-27.7,25.0,2.0,-27.5,5.73,2.37,-25.2,29.6
2013-03-18 00:48:00,0.0,1.9103,0.0009,403.68,0.49,136.1,34.5,138.07,30.47,24.66,36.43,0.04,-272.76,-272.75,-47,566,-930,25.0,2.0,-27.6,25.0,2.0,-27.4,5.73,2.36,-25.2,29.6
2013-03-18 00:49:00,0.0,1.9100,0.0010,403.77,0.36,138.2,29.9,138.07,30.47,24.66,36.43,0.04,-272.75,-272.75,-47,566,-930,25.0,2.0,-27.7,25.0,2.0,-27.4,5.73,2.36,-25.2,29.7
2013-03-18 00:50:00,0.0,1.9100,0.0009,403.68,0.41,133.7,28.5,138.07,30.47,24.66,36.43,0.04,-272.75,-272.76,-47,566,-931,25.0,2.0,-27.7,25.0,2.0,-27.5,5.73,2.35,-25.2,29.6
2013-03-18 00:51:00,0.0,1.9108,0.0009,403.74,0.50,136.5,31.9,138.07,30.47,24.66,36.43,0.04,-272.75,-272.76,-47,566,-930,25.0,2.0,-27.7,25.0,2.0,-27.3,5.73,2.34,-25.2,29.6
2013-03-18 00:52:00,0.0,1.9109,0.0008,403.72,0.40,137.2,34.4,138.07,30.47,24.66,36.43,0.04,-272.76,-272.75,-47,566,-930,25.0,2.0,-27.6,25.0,2.0,-27.4,5.73,2.35,-25.2,29.6
2013-03-18 00:53:00,0.0,1.9109,0.0012,403.88,0.39,132.2,33.7,138.07,30.47,24.66,36.43,0.04,-272.75,-272.76,-47,566,-930,25.0,2.0,-27.9,25.0,2.0,-27.4,5.73,2.34,-25.2,29.6
2013-03-18 00:54:00,0.0,1.9111,0.0010,403.74,0.38,137.3,29.1,138.07,30.47,24.66,36.43,0.04,-272.75,-272.76,-47,566,-930,25.0,2.0,-27.7,25.0,2.0,-27.4,5.73,2.34,-25.2,29.6
2013-03-18 00:55:00,0.0,1.9110,0.0009,403.74,0.32,140.8,32.5,138.07,30.47,24.66,36.44,0.04,-272.75,-272.75,-47,566,-930,25.0,2.0,-27.8,25.0,2.0,-27.5,5.73,2.34,-25.2,29.6
2013-03-18 00:56:00,0.0,1.9107,0.0010,403.77,0.42,138.2,27.5,138.07,30.48,24.66,36.43,0.04,-272.75,-272.76,-47,566,-930,25.0,2.0,-27.5,25.0,2.0,-27.4,5.73,2.34,-25.2,29.6
2013-03-18 00:57:00,0.0,1.9106,0.0009,403.68,0.43,139.4,36.3,138.07,30.47,24.66,36.43,0.04,-272.76,-272.75,-47,566,-931,25.0,2.0,-27.7,25.1,2.0,-27.4,5.73,2.35,-25.2,29.6
2013-03-18 00:58:00,0.0,1.9107,0.0008,403.64,0.42,134.4,33.6,138.07,30.47,24.66,36.43,0.04,-272.75,-272.76,-47,566,-930,25.1,2.0,-27.8,25.0,2.0,-27.4,5.73,2.35,-25.2,29.6
2013-03-18 00:59:00,0.0,1.9113,0.0008,403.64,0.46,141.0,38.4,138.07,30.48,24.66,36.44,0.04,-272.75,-272.75,-47,566,-931,25.0,2.0,-27.7,25.1,2.0,-27.3,5.73,2.35,-25.2,29.6
2013-03-18 01:00:00,0.0,1.9113,0.0007,403.78,0.44,142.8,31.9,138.07,30.48,24.66,36.43,0.04,-272.75,-272.75,-47,566,-930,25.0,2.0,-27.7,25.1,2.0,-27.4,5.73,2.36,-25.2,29.6
2013-03-18 01:01:00,0.0,1.9115,0.0010,403.74,0.37,137.5,30.5,138.07,30.48,24.66,36.43,0.04,-272.75,-272.75,-47,566,-930,25.0,2.0,-27.6,25.1,2.0,-27.4,5.73,2.36,-25.2,29.7
2013-03-18 01:02:00,0.0,1.9118,0.0009,403.81,0.38,128.1,35.2,138.07,30.48,24.66,36.43,0.04,-272.75,-272.76,-47,566,-931,25.0,1.9,-27.9,25.1,2.0,-27.4,5.73,2.36,-25.2,29.6
2013-03-18 01:03:00,0.0,1.9113,0.0009,403.86,0.45,126.4,34.7,138.07,30.48,24.66,36.43,0.04,-272.75,-272.76,-47,566,-930,25.1,1.9,-27.9,25.1,2.0,-27.5,5.73,2.37,-25.2,29.7
2013-03-18 01:04:00,0.0,1.9119,0.0010,403.66,0.40,133.8,28.1,138.07,30.48,24.66,36.43,0.04,-272.75,-272.75,-47,566,-931,25.1,2.0,-27.8,25.1,2.0,-27.5,5.73,2.36,-25.3,29.6
2013-03-18 01:05:00,0.0,1.9111,0.0010,403.69,0.42,136.0,32.8,138.07,30.48,24.66,36.43,0.04,-272.75,-272.75,-47,566,-930,25.1,1.9,-27.9,25.1,2.0,-27.5,5.73,2.37,-25.2,29.7
2013-03-18 01:06:00,0.0,1.9108,0.0011,403.68,0.41,132.6,34.4,138.07,30.48,24.66,36.43,0.04,-272.75,-272.76,-47,566,-931,25.1,2.0,-27.5,25.1,2.0,-27.4,5.73,2.37,-25.3,29.6
2013-03-18 01:07:00,0.0,1.9113,0.0008,403.70,0.47,130.2,35.1,138.07,30.48,24.66,36.43,0.04,-272.75,-272.75,-47,566,-930,25.1,2.0,-27.6,25.1,2.0,-27.4,5.73,2.36,-25.3,29.6
2013-03-18 01:08:00,0.0,1.9112,0.0010,403.64,0.40,129.3,38.4,138.07,30.48,24.66,36.43,0.04,-272.75,-272.75,-47,566,-930,25.1,2.0,-27.5,25.1,2.0,-27.5,5.73,2.35,-25.3,29.7
2013-03-18 01:09:00,0.0,1.9111,0.0008,403.67,0.34,132.1,31.3,138.07,30.49,24.66,36.43,0.04,-272.76,-272.76,-47,566,-931,25.1,2.0,-27.8,25.1,2.0,-27.4,5.73,2.35,-25.3,29.7
2013-03-18 01:10:00,0.0,1.9116,0.0009,403.77,0.38,135.9,29.3,138.07,30.49,24.66,36.43,0.04,-272.76,-272.75,-47,566,-930,25.1,2.0,-27.6,25.1,2.1,-27.2,5.73,2.35,-25.3,29.6
2013-03-18 01:11:00,0.0,1.9115,0.0009,403.75,0.41,142.1,30.0,138.07,30.49,24.66,36.43,0.04,-272.75,-272.76,-47,566,-931,25.1,2.0,-27.6,25.1,2.0,-27.3,5.73,2.35,-25.3,29.7
2013-03-18 01:12:00,0.0,1.9119,0.0010,403.67,0.43,129.7,30.9,138.07,30.49,24.66,36.44,0.04,-272.75,-272.76,-47,566,-930,25.1,2.0,-27.6,25.1,2.1,-27.2,5.73,2.34,-25.3,29.7
2013-03-18 01:13:00,0.0,1.9117,0.0009,403.81,0.36,126.7,30.3,138.07,30.49,24.66,36.43,0.04,-272.75,-272.75,-47,566,-930,25.1,1.9,-27.8,25.1,2.0,-27.4,5.73,2.34,-25.3,29.6
2013-03-18 01:14:00,0.0,1.9117,0.0007,403.65,0.45,131.8,34.5,138.07,30.49,24.66,36.43,0.04,-272.75,-272.75,-47,566,-930,25.1,2.0,-27.8,25.1,2.0,-27.5,5.73,2.35,-25.3,29.6
2013-03-18 01:15:00,0.0,1.9116,0.0009,403.69,0.41,140.6,39.4,138.07,30.49,24.66,36.44,0.04,-272.75,-272.75,-47,566,-930,25.1,2.0,-27.8,25.1,2.0,-27.5,5.73,2.34,-25.3,29.6
2013-03-18 01:16:00,0.0,1.9114,0.0008,403.74,0.43,140.4,31.3,138.07,30.49,24.66,36.43,0.04,-272.75,-272.76,-47,566,-931,25.1,2.0,-27.7,25.1,2.0,-27.5,5.73,2.34,-25.3,29.6
2013-03-18 01:17:00,0.0,1.9115,0.0009,403.75,0.41,129.2,36.0,138.07,30.49,24.66,36.43,0.04,-272.75,-272.76,-47,566,-930,25.1,2.0,-27.8,25.1,2.0,-27.4,5.73,2.34,-25.3,29.6
2013-03-18 01:18:00,0.0,1.9116,0.0008,403.82,0.42,135.9,36.6,138.07,30.49,24.66,36.43,0.04,-272.75,-272.76,-47,566,-931,25.1,2.0,-27.7,25.1,2.0,-27.6,5.73,2.34,-25.4,29.6
2013-03-18 01:19:00,0.0,1.9115,0.0009,403.66,0.40,134.2,31.7,138.07,30.49,24.66,36.44,0.04,-272.75,-272.75,-47,566,-930,25.1,2.0,-27.7,25.1,2.0,-27.5,5.73,2.35,-25.4,29.7
2013-03-18 01:20:00,0.0,1.9119,0.0007,403.66,0.45,134.9,30.6,138.07,30.50,24.66,36.43,0.04,-272.75,-272.76,-47,566,-931,25.1,1.9,-27.8,25.1,2.0,-27.5,5.73,2.35,-25.4,29.6
2013-03-18 01:21:00,0.0,1.9122,0.0011,403.71,0.42,131.8,35.0,138.07,30.50,24.66,36.43,0.04,-272.75,-272.76,-47,566,-930,25.1,2.0,-27.8,25.1,2.0,-27.5,5.73,2.35,-25.4,29.7
2013-03-18 01:22:00,0.0,1.9121,0.0009,403.69,0.44,136.3,36.5,138.07,30.50,24.66,36.44,0.04,-272.76,-272.75,-47,566,-930,25.2,1.9,-27.8,25.1,2.0,-27.4,5.73,2.35,-25.4,29.6
2013-03-18 01:23:00,0.0,1.9125,0.0009,403.77,0.42,126.3,31.6,138.07,30.51,24.66,36.43,0.04,-272.75,-272.76,-47,566,-931,25.2,2.0,-27.8,25.2,2.0,-27.4,5.73,2.35,-25.4,29.7
2013-03-18 01:24:00,0.0,1.9125,0.0009,403.60,0.42,124.6,37.3,138.07,30.51,24.66,36.43,0.04,-272.75,-272.75,-47,566,-930,25.2,1.9,-27.8,25.2,2.0,-27.5,5.73,2.36,-25.4,29.7
2013-03-18 01:25:00,0.0,1.9128,0.0010,403.67,0.45,125.8,29.5,138.07,30.51,24.66,36.43,0.04,-272.75,-272.75,-47,566,-931,25.2,1.9,-27.8,25.2,2.0,-27.4,5.73,2.36,-25.4,29.7
2013-03-18 01:26:00,0.0,1.9126,0.0007,403.73,0.42,128.5,33.1,138.07,30.52,24.66,36.43,0.04,-272.75,-272.75,-47,566,-930,25.2,2.0,-27.7,25.2,2.0,-27.4,5.73,2.36,-25.4,29.7
2013-03-18 01:27:00,0.0,1.9129,0.0009,403.75,0.43,123.9,29.7,138.07,30.52,24.66,36.43,0.04,-272.75,-272.75,-47,566,-931,25.2,1.9,-27.8,25.2,2.0,-27.4,5.73,2.36,-25.4,29.7
2013-03-18 01:28:00,0.0,1.9130,0.0010,403.74,0.42,127.5,29.2,138.07,30.52,24.66,36.43,0.04,-272.75,-272.75,-47,566,-930,25.2,1.9,-27.9,25.2,2.0,-27.6,5.73,2.36,-25.4,29.7
2013-03-18 01:29:00,0.0,1.9132,0.0009,403.72,0.49,124.9,33.4,138.07,30.52,24.66,36.43,0.04,-272.75,-272.76,-47,566,-931,25.2,1.9,-27.9,25.2,2.0,-27.6,5.73,2.36,-25.4,29.6
2013-03-18 01:30:00,0.0,1.9133,0.0009,403.75,0.47,120.6,30.5,138.07,30.52,24.66,36.44,0.04,-272.76,-272.76,-47,566,-931,25.2,1.9,-28.0,25.2,2.0,-27.7,5.73,2.36,-25.4,29.7
2013-03-18 01:31:00,0.0,1.9140,0.0010,403.71,0.44,129.1,28.2,138.07,30.52,24.66,36.44,0.04,-272.75,-272.75,-47,566,-930,25.2,1.9,-28.0,25.2,2.0,-27.7,5.73,2.36,-25.5,29.7
2013-03-18 01:32:00,0.0,1.9137,0.0009,403.76,0.32,127.9,34.5,138.07,30.52,24.66,36.43,0.04,-272.75,-272.75,-47,566,-931,25.2,1.9,-28.2,25.2,1.9,-27.8,5.73,2.36,-25.5,29.7
2013-03-18 01:33:00,0.0,1.9140,0.0009,403.76,0.40,116.0,33.2,138.07,30.53,24.66,36.43,0.04,-272.75,-272.76,-47,566,-930,25.2,1.9,-28.1,25.2,1.9,-27.8,5.73,2.36,-25.4,29.7
2013-03-18 01:34:00,0.0,1.9139,0.0009,403.69,0.45,124.5,34.1,138.07,30.53,24.66,36.43,0.04,-272.76,-272.76,-47,566,-931,25.2,1.9,-28.3,25.2,1.9,-27.9,5.73,2.36,-25.4,29.7
2013-03-18 01:35:00,0.0,1.9140,0.0010,403.72,0.46,123.3,34.1,138.07,30.53,24.66,36.43,0.04,-272.75,-272.76,-47,566,-930,25.2,1.9,-28.3,25.2,1.9,-27.8,5.73,2.35,-25.4,29.7
2013-03-18 01:36:00,0.0,1.9134,0.0008,403.70,0.39,116.6,34.8,138.07,30.53,24.66,36.43,0.04,-272.76,-272.76,-47,566,-931,25.2,1.9,-28.1,25.2,1.9,-28.0,5.73,2.35,-25.4,29.7
2013-03-18 01:37:00,0.0,1.9140,0.0010,403.82,0.40,121.2,37.3,138.07,30.53,24.66,36.43,0.04,-272.75,-272.76,-47,566,-931,25.2,1.9,-28.2,25.2,1.9,-27.9,5.73,2.35,-25.5,29.7
2013-03-18 01:38:00,0.0,1.9145,0.0009,403.74,0.39,118.5,27.9,138.07,30.54,24.65,36.44,0.04,-272.75,-272.75,-47,566,-930,25.2,1.9,-28.2,25.2,1.9,-27.9,5.73,2.35,-25.5,29.7
2013-03-18 01:39:00,0.0,1.9142,0.0008,403.76,0.44,126.2,31.4,138.07,30.54,24.66,36.43,0.04,-272.75,-272.75,-47,566,-931,25.2,1.9,-28.1,25.2,1.9,-27.9,5.73,2.34,-25.4,29.7
2013-03-18 01:40:00,0.0,1.9145,0.0010,403.74,0.45,120.0,35.2,138.07,30.54,24.66,36.43,0.04,-272.75,-272.76,-47,566,-930,25.2,1.9,-28.2,25.2,1.9,-27.9,5.73,2.34,-25.5,29.7
2013-03-18 01:41:00,0.0,1.9146,0.0008,403.78,0.43,123.3,32.0,138.07,30.54,24.66,36.44,0.04,-272.75,-272.75,-47,567,-931,25.2,1.9,-28.2,25.2,1.9,-27.9,5.73,2.34,-25.5,29.7
2013-03-18 01:42:00,0.0,1.9143,0.0011,403.84,0.48,116.0,26.4,138.07,30.55,24.66,36.43,0.04,-272.75,-272.75,-47,567,-930,25.2,1.8,-28.3,25.2,1.9,-28.0,5.73,2.34,-25.5,29.7
2013-03-18 01:43:00,0.0,1.9142,0.0009,403.83,0.47,120.4,31.7,138.07,30.55,24.66,36.43,0.04,-272.75,-272.75,-47,566,-931,25.2,1.9,-28.2,25.2,1.9,-27.9,5.73,2.34,-25.5,29.7
2013-03-18 01:44:00,0.0,1.9141,0.0009,403.85,0.43,116.0,29.6,138.07,30.55,24.66,36.43,0.04,-272.76,-272.76,-47,566,-930,25.2,1.9,-28.2,25.2,1.9,-27.9,5.73,2.34,-25.5,29.7
2013-03-18 01:45:00,0.0,1.9137,0.0010,403.78,0.49,128.3,28.7,138.07,30.55,24.66,36.43,0.04,-272.76,-272.75,-47,567,-931,25.2,1.9,-28.0,25.2,1.9,-27.7,5.73,2.35,-25.5,29.7
2013-03-18 01:46:00,0.0,1.9136,0.0010,403.75,0.40,113.4,33.5,138.07,30.55,24.66,36.43,0.04,-272.75,-272.76,-47,567,-931,25.3,1.9,-27.9,25.2,1.9,-27.7,5.73,2.34,-25.5,29.7
2013-03-18 01:47:00,0.0,1.9135,0.0009,403.88,0.36,117.2,34.7,138.07,30.55,24.66,36.43,0.04,-272.76,-272.75,-47,567,-931,25.2,1.9,-27.8,25.2,2.0,-27.6,5.73,2.35,-25.5,29.7
2013-03-18 01:48:00,0.0,1.9135,0.0009,403.68,0.46,117.9,35.3,138.07,30.55,24.66,36.43,0.04,-272.76,-272.75,-47,566,-931,25.2,1.9,-27.8,25.3,2.0,-27.5,5.73,2.35,-25.5,29.7
2013-03-18 01:49:00,0.0,1.9131,0.0012,403.65,0.43,116.1,33.3,138.07,30.55,24.66,36.43,0.04,-272.75,-272.75,-47,566,-931,25.3,1.9,-27.8,25.2,2.0,-27.5,5.73,2.35,-25.5,29.7
2013-03-18 01:50:00,0.0,1.9136,0.0010,403.69,0.57,118.0,32.0,138.07,30.56,24.66,36.44,0.04,-272.76,-272.75,-47,566,-931,25.3,1.9,-27.7,25.3,2.0,-27.6,5.73,2.35,-25.5,29.7
2013-03-18 01:51:00,0.0,1.9132,0.0008,403.76,0.41,114.7,27.5,138.07,30.56,24.66,36.43,0.04,-272.76,-272.75,-47,567,-931,25.3,1.9,-28.0,25.3,2.0,-27.6,5.73,2.36,-25.5,29.7
2013-03-18 01:52:00,0.0,1.9135,0.0011,403.66,0.48,121.8,24.8,138.07,30.56,24.66,36.44,0.04,-272.75,-272.75,-47,567,-931,25.3,1.9,-28.0,25.2,2.0,-27.6,5.73,2.36,-25.6,29.7
2013-03-18 01:53:00,0.0,1.9133,0.0010,403.74,0.40,119.4,32.9,138.07,30.56,24.66,36.43,0.04,-272.75,-272.75,-47,567,-930,25.2,2.0,-27.7,25.3,2.0,-27.5,5.73,2.36,-25.6,29.7
2013-03-18 01:54:00,0.0,1.9130,0.0010,403.72,0.43,113.6,35.6,138.07,30.56,24.66,36.43,0.04,-272.75,-272.75,-47,567,-931,25.3,1.9,-27.9,25.3,2.0,-27.5,5.73,2.35,-25.6,29.7
2013-03-18 01:55:00,0.0,1.9126,0.0008,403.71,0.48,109.3,36.9,138.07,30.57,24.66,36.43,0.04,-272.75,-272.75,-47,567,-931,25.3,1.9,-27.8,25.2,2.0,-27.6,5.73,2.35,-25.6,29.7
2013-03-18 01:56:00,0.0,1.9125,0.0009,403.78,0.39,118.2,30.8,138.07,30.57,24.66,36.43,0.04,-272.75,-272.75,-47,567,-931,25.3,1.9,-27.9,25.3,2.0,-27.6,5.73,2.35,-25.6,29.7
2013-03-18 01:57:00,0.0,1.9128,0.0009,403.75,0.42,114.0,33.7,138.07,30.57,24.66,36.43,0.04,-272.75,-272.76,-47,567,-931,25.3,1.9,-27.9,25.3,2.0,-27.6,5.73,2.35,-25.6,29.7
2013-03-18 01:58:00,0.0,1.9126,0.0010,403.86,0.43,110.6,30.8,138.07,30.57,24.66,36.43,0.04,-272.76,-272.75,-47,567,-931,25.3,1.9,-27.8,25.2,2.0,-27.4,5.73,2.35,-25.6,29.7
2013-03-18 01:59:00,0.0,1.9123,0.0008,403.75,0.44,110.9,30.8,138.07,30.57,24.66,36.43,0.04,-272.75,-272.76,-47,567,-931,25.2,1.9,-27.9,25.3,2.0,-27.6,5.73,2.35,-25.6,29.7
2013-03-18 02:00:00,0.0,1.9127,0.0007,403.73,0.43,116.2,33.3,138.07,30.58,24.66,36.43,0.04,-272.75,-272.76,-47,567,-931,25.3,1.9,-27.8,25.2,2.0,-27.6,5.73,2.36,-25.6,29.7
2013-03-18 02:01:00,0.0,1.9125,0.0009,403.66,0.49,106.5,32.7,138.07,30.58,24.66,36.43,0.04,-272.75,-272.76,-47,567,-931,25.3,1.9,-27.8,25.3,2.0,-27.6,5.73,2.36,-25.6,29.7
2013-03-18 02:02:00,0.0,1.9126,0.0011,403.76,0.42,107.6,29.7,138.07,30.58,24.66,36.43,0.04,-272.75,-272.76,-47,567,-931,25.3,1.9,-27.9,25.2,2.0,-27.6,5.73,2.35,-25.7,29.6
2013-03-18 02:03:00,0.0,1.9122,0.0010,403.86,0.46,103.8,31.4,138.07,30.58,24.66,36.43,0.04,-272.75,-272.75,-47,567,-931,25.3,1.9,-27.9,25.3,2.0,-27.6,5.73,2.35,-25.7,29.7
2013-03-18 02:04:00,0.0,1.9126,0.0008,403.75,0.34,110.0,27.7,138.07,30.58,24.66,36.43,0.04,-272.75,-272.76,-47,567,-931,25.3,1.9,-27.9,25.3,2.0,-27.5,5.73,2.35,-25.7,29.7
2013-03-18 02:05:00,0.0,1.9124,0.0009,403.87,0.41,109.9,29.3,138.07,30.59,24.66,36.43,0.04,-272.75,-272.75,-47,567,-931,25.3,1.9,-27.7,25.3,2.0,-27.6,5.73,2.35,-25.7,29.7
2013-03-18 02:06:00,0.0,1.9126,0.0009,403.75,0.40,116.1,32.8,138.07,30.59,24.66,36.43,0.04,-272.75,-272.76,-47,567,-931,25.3,1.9,-27.9,25.3,2.0,-27.6,5.73,2.35,-25.7,29.7
2013-03-18 02:07:00,0.0,1.9121,0.0009,403.69,0.44,107.6,32.4,138.07,30.59,24.66,36.43,0.04,-272.76,-272.76,-47,567,-931,25.3,1.9,-27.9,25.3,1.9,-27.7,5.73,2.36,-25.7,29.7
2013-03-18 02:08:00,0.0,1.9124,0.0009,403.87,0.41,113.5,35.8,138.07,30.60,24.66,36.43,0.04,-272.75,-272.76,-47,567,-931,25.3,1.9,-27.9,25.3,2.0,-27.6,5.73,2.36,-25.7,29.7
2013-03-18 02:09:00,0.0,1.9123,0.0009,403.82,0.50,107.5,33.5,138.07,30.60,24.66,36.43,0.04,-272.75,-272.75,-47,567,-931,25.3,1.9,-27.7,25.3,2.0,-27.5,5.73,2.35,-25.7,29.7
2013-03-18 02:10:00,0.0,1.9119,0.0008,403.91,0.40,109.0,35.0,138.07,30.59,24.66,36.43,0.04,-272.75,-272.76,-47,567,-931,25.3,1.9,-27.7,25.3,2.0,-27.5,5.73,2.35,-25.7,29.7
2013-03-18 02:11:00,0.0,1.9120,0.0009,403.84,0.38,104.4,30.0,138.07,30.60,24.66,36.43,0.04,-272.75,-272.76,-47,567,-931,25.3,1.9,-27.8,25.3,2.0,-27.6,5.73,2.35,-25.7,29.7
2013-03-18 02:12:00,0.0,1.9121,0.0009,403.79,0.39,115.2,34.6,138.07,30.60,24.66,36.43,0.04,-272.76,-272.75,-47,567,-931,25.3,1.9,-27.9,25.3,2.0,-27.6,5.73,2.35,-25.7,29.7
2013-03-18 02:13:00,0.0,1.9123,0.0008,403.80,0.47,110.0,35.8,138.07,30.60,24.66,36.43,0.04,-272.75,-272.76,-47,567,-931,25.3,1.9,-27.8,25.3,2.0,-27.6,5.73,2.35,-25.7,29.7
2013-03-18 02:14:00,0.0,1.9125,0.0008,403.81,0.34,103.5,31.0,138.07,30.60,24.66,36.43,0.04,-272.76,-272.76,-47,567,-931,25.3,1.9,-27.9,25.3,2.0,-27.6,5.73,2.35,-25.7,29.6
2013-03-18 02:15:00,0.0,1.9119,0.0010,403.77,0.35,111.9,32.7,138.07,30.60,24.66,36.44,0.04,-272.75,-272.75,-47,567,-932,25.3,1.9,-27.8,25.3,2.0,-27.5,5.73,2.35,-25.7,29.7
2013-03-18 02:16:00,0.0,1.9118,0.0009,403.84,0.40,107.1,27.6,138.07,30.61,24.66,36.43,0.04,-272.75,-272.76,-47,567,-931,25.3,1.9,-27.9,25.3,2.0,-27.5,5.73,2.35,-25.7,29.7